Location: Unspecified
(49.0500°N, 0.0000°E)
Time: 09:20:17
(UTC+00:00)

OTV 5 (USA 277) - Pass Details

Date: 18 June 2019
Orbit: 305 x 329 km, 54.5° (Epoch: 20 August)

Event Time Altitude Azimuth Distance (km) Brightness Sun altitude
Exits shadow 22:48:39 13° 86° (E) 1,070 ? -15.8°
Drops below altitude 10° 22:49:09 10° 80° (E) 1,247 ? -15.8°
Enters shadow 23:53:26 -52° 244° (WSW) 10,365 ? -17.5°
Maximum altitude 00:20:58 47° 338° (NNW) 444 ? -17.4°
